AirNav   Pilot Hours Calculator
 
 1210 users online  

KDLC Dillon County Airport
Dillon, South Carolina, USA

GOING TO DILLON?


FAA INFORMATION EFFECTIVE 16 JUNE 2022

Location

FAA Identifier: DLC
Lat/Long: 34-26-56.6000N 079-22-06.9000W
34-26.943333N 079-22.115000W
34.4490556,-79.3685833
(estimated)
Elevation: 133.1 ft. / 40.6 m (surveyed)
Variation: 06W (1985)
From city: 3 miles N of DILLON, SC
Time zone: UTC -4 (UTC -5 during Standard Time)
Zip code: 29536

Airport Operations

Airport use: Open to the public
Activation date: 08/1960
Control tower: no
ARTCC: JACKSONVILLE CENTER
FSS: ANDERSON FLIGHT SERVICE STATION
NOTAMs facility: AND (NOTAM-D service available)
Attendance: UNATNDD
Wind indicator: yes
Segmented circle: yes
Lights: SS-SR
Beacon: white-green (lighted land airport)
Operates sunset to sunrise.

Airport Communications

CTAF: 122.9
FLORENCE APPROACH: 118.6
FLORENCE DEPARTURE: 118.6
WX AWOS-3 at MAO (16 nm S): 119.875 (843-423-4231)
WX ASOS at LBT (18 nm NE): 134.775 (910-739-7120)
  • APCH/DEP SVC PRVDD BY JACKSONVILLE ARTCC ON FREQS 133.45/306.3 (FLORENCE RCAG) WHEN FLORENCE APCH CTL CLSD.

Airport Services

Parking: tiedowns
Airframe service: NONE
Powerplant service: NONE
Bottled oxygen: NONE
Bulk oxygen: NONE

Runway Information

Runway 7/25

Dimensions: 3000 x 60 ft. / 914 x 18 m
Surface: asphalt/aggregate friction seal coat, in fair condition
Weight bearing capacity: 
Single wheel: 10.0
Runway edge lights: medium intensity
RUNWAY 7  RUNWAY 25
Latitude: 34-26.834567N34-27.051700N
Longitude: 079-22.383617W079-21.847200W
Elevation: 133.1 ft.117.3 ft.
Traffic pattern: leftleft
Runway heading: 070 magnetic, 064 true250 magnetic, 244 true
Markings: nonprecision, in good conditionnonprecision, in good condition
Touchdown point: yes, no lightsyes, no lights
Obstructions: 44 ft. pole, 773 ft. from runway, 258 ft. right of centerline, 12:1 slope to clear50 ft. tree, 276 ft. from runway, 135 ft. left of centerline, 1:1 slope to clear
RWY 25 APCH HAS LINES OF TREES PARL TO THE RWY 135 FT BOTH SIDES OF CNTRLN.

Airport Ownership and Management from official FAA records

Ownership: Publicly-owned
Owner: DILLON COUNTY
PO BOX 449
DILLON, SC 29536
Phone (843) 774-1401
Manager: WINNA MILLER
PO BOX 449
DILLON, SC 29536
Phone (843) 627-6153

Airport Operational Statistics

Aircraft operations: avg 26/month *
54% local general aviation
36% transient general aviation
10% military
* for 12-month period ending 08 June 2021

Additional Remarks

FOR CD CTC FLORENCE APCH AT 843-669-5194, WHEN APCH CLSD CTC JACKSONVILLE ARTCC AT 904-845-1592.

Instrument Procedures

NOTE: All procedures below are presented as PDF files. If you need a reader for these files, you should download the free Adobe Reader.

NOT FOR NAVIGATION. Please procure official charts for flight.
FAA instrument procedures published for use from 16 June 2022 at 0901Z to 14 July 2022 at 0900z.

 
IAPs - Instrument Approach Procedures
VOR/DME OR GPS RWY 07   download (168KB)
NOTE: Special Take-Off Minimums/Departure Procedures apply   download (141KB)

Other nearby airports with instrument procedures:

KMAO - Marion County Airport (16 nm S)
KLBT - Lumberton Regional Airport (18 nm NE)
KMEB - Laurinburg/Maxton Airport (21 nm N)
KBBP - Marlboro County Jetport - H E Avent Field (21 nm NW)
KFLO - Florence Regional Airport (24 nm SW)
 
Loc | Ops | Rwys | IFR | FBO | Links
Com | Nav | Svcs | Stats | Notes
Area around KDLC (Dillon County Airport)
 
Road maps at: MapQuest Bing Google
 
Aerial photo
WARNING: Photo may not be current or correct
Aerial photo of KDLC (Dillon County Airport)
Do you have a better or more recent aerial photo of Dillon County Airport that you would like to share? If so, please send us your photo.

 
Sectional chart

 
Airport distance calculator
Flying to Dillon County Airport? Find the distance to fly.

From to KDLC

Sunrise and sunset
Times for 02-Jul-2022
 Local
(UTC-4)
 Zulu
(UTC)
Morning civil twilight05:4109:41
Sunrise06:1010:10
Sunset20:3300:33
Evening civil twilight21:0201:02

Current date and time
Zulu (UTC)  02-Jul-2022 23:05:49
Local (UTC-4)  02-Jul-2022 19:05:49
 
METAR
KMAO 
16nm S 
022255Z AUTO 00000KT 10SM BKN046 BKN060 30/17 A2995 RMK AO2
KLBT 
17nm NE 
022256Z AUTO 14008KT 10SM FEW038 30/23 A2995 RMK AO2 SLP139 T03000233 TSNO
KMEB 
20nm N 
022252Z AUTO 10007KT 10SM CLR 33/22 A2995 RMK AO2 SLP139 T03280217
KBBP 
21nm NW 
022255Z AUTO 00000KT 10SM OVC050 32/21 A2994 RMK AO2
KFLO 
24nm SW 
022253Z VRB04KT 10SM CLR 32/21 A2995 RMK AO2 SLP140 T03220211
KUDG 
25nm W 
022256Z AUTO 18003KT 10SM SCT050 32/22 A2996 RMK AO2 SLP143 T03170217
TAF
KLBT 
17nm NE 
021733Z 0218/0318 05006KT P6SM VCSH BKN035 TEMPO 0218/0222 08010G19KT 5SM RA BKN015 FM030000 VRB05KT P6SM BKN150 FM031300 24005KT P6SM SCT050 AMD NOT SKED
NOTAMs
Click for the latest NOTAMs
NOTAMs are issued by the DoD/FAA and will open in a separate window not controlled by AirNav.

 

 
 

Aviation Businesses, Services, and Facilities

  
 Business Name 
 
 Contact 
 
 Services / Description 
 
Distance
 
Comments
  
Price Flying Service 843-774-2636
no information available

If you are affiliated with Price Flying Service and would like to show here your services, contact info, web link, logo, and more, click here
on airport  
   write
 

Would you like to see your business listed on this page?

 If your business provides an interesting product or service to pilots, flight crews, aircraft, or users of the Dillon County Airport, you should consider listing it here.  To start the listing process, click on the button below
 
Add a business
 

Other Pages about Dillon County Airport

Update a link
 
Copyright © AirNav, LLC. All rights reserved. Privacy Policy  Contact